[[{"header":{"parameterUnit":"m.s-1","parameterCategory":1,"la1":30.2991,"la2":30.254,"lo1":-89.0895,"lo2":-89.0444,"dy":0.0017,"dx":0.0017,"nx":28,"ny":28,"refTime":"2025-12-30T09:00:00:Z","depth":0,"parameterNumber":2,"parameterNumberName":"U-component_of_WINDS"},"data":[0,0,0,0,0,0,0,0,0,0,0,0,0,0,0,0,0,0,0,0,0,0,0,0,0,0,0,0,0,0,0,0,0,0,0,0,0,0,0,0,0,0,0,0,0,0,0,0,0,0,0,0,0,0,0,0,0,0,4.1746,4.1747,0,4.1838,4.1839,4.184,4.18,4.1798,4.1796,4.1794,4.1891,4.1896,4.1901,0,0,0,0,0,0,0,0,0,0,0,0,0,4.1538,4.1542,4.1746,4.1747,4.1748,4.1838,4.1839,4.1841,4.1801,4.1798,4.1795,4.1793,4.189,4.1895,4.1901,0,0,0,0,0,0,0,0,0,0,0,0,0,4.1629,4.1543,4.1746,4.1739,4.1739,4.1838,4.1839,4.1841,4.1801,4.1798,4.1795,4.1791,4.1888,4.1895,4.1902,4.2013,0,0,4.1923,4.1926,0,0,0,0,0,0,0,0,4.1624,4.1637,4.1739,4.174,4.174,4.1804,4.1802,4.1899,4.1802,4.1778,4.1794,4.179,4.1865,4.1874,4.1899,4.2018,4.2022,4.1924,4.1928,4.1931,4.1933,0,0,0,0,0,0,0,4.1618,4.1633,4.1782,4.174,4.1741,4.1732,4.1742,4.182,4.184,4.178,4.1777,4.1788,4.1865,4.1892,4.1901,4.2023,4.1924,4.193,4.1934,4.1937,4.224,4.2244,0,0,0,0,0,0,4.1611,4.1628,4.1779,4.1785,4.1672,4.1739,4.1749,4.1787,4.1839,4.1843,4.1791,4.1786,4.1882,4.1893,4.1904,4.2039,4.1931,4.1938,4.1942,4.2236,4.2241,4.2245,0,0,0,0,0,0,4.1607,4.1625,4.1776,4.1706,4.1724,4.1746,4.1789,4.1791,4.1818,4.1847,4.1851,4.1815,4.188,4.1894,4.1987,4.2042,4.1941,4.1947,4.2232,4.2238,4.2243,4.2309,0,0,0,0,0,0,4.1601,4.1624,4.1665,4.1707,4.1728,4.1856,4.1792,4.1795,4.183,4.1824,4.1871,4.1875,4.1878,4.1976,4.1994,4.205,4.1953,4.2227,4.2234,4.2241,4.2302,4.2316,4.2329,0,0,0,0,0,4.1594,4.1681,4.1668,4.1686,4.1781,4.1859,4.1871,4.1872,4.1834,4.1877,4.1896,4.1874,4.2033,4.1986,4.2005,4.2064,4.2223,4.2232,4.2241,4.2296,4.2314,4.2328,0,0,0,0,0,0,4.1646,4.1686,4.1672,4.1775,4.1814,4.1852,4.1906,4.189,4.1941,4.1934,4.1934,4.1945,4.204,4.2061,4.2008,4.2176,4.2123,4.2135,4.2158,4.2175,4.2188,4.2181,4.1959,0,0,0,0,0,4.1669,4.1728,4.1761,4.1848,4.1869,4.1884,4.1918,4.1915,4.1956,4.1973,4.1998,4.204,4.2099,4.2138,4.2194,4.2305,4.2315,4.2355,4.2368,4.2379,4.2391,4.2452,4.247,4.2273,4.2273,4.2273,0,0,4.1718,4.1747,4.1785,4.186,4.1889,4.1952,4.1898,4.1966,4.2013,4.1983,4.2072,4.2092,4.2138,4.2241,4.2287,4.2261,4.2447,4.239,4.2398,4.2404,4.2463,4.2481,4.2498,4.2279,4.2278,4.2277,0,0,4.184,4.1867,4.1944,4.1975,4.2021,4.203,4.2049,4.209,4.2102,4.2191,4.217,4.2226,4.2328,4.2362,4.2393,4.2528,4.251,4.2547,4.2616,4.2676,4.2692,4.2706,4.2755,4.2773,4.2558,4.2558,4.2558,0,4.1896,4.1988,4.1986,4.2056,4.209,4.2065,4.2144,4.2174,4.2236,4.2261,4.2231,4.2359,4.2388,4.2498,4.2531,4.2557,4.2579,4.2542,4.269,4.2703,4.2716,4.2764,4.2782,4.2562,4.2562,4.2561,4.2561,0,4.2055,4.212,4.2176,4.2236,4.2276,4.2351,4.2361,4.2402,4.2396,4.2409,4.2501,4.2535,4.2598,4.2624,4.2619,4.2735,4.2717,4.2689,4.2635,4.2739,4.2784,4.2802,4.2568,4.2567,4.2566,4.2565,0,0,4.2212,4.227,4.2291,4.2319,4.2367,4.2418,4.2491,4.2552,4.2588,4.2632,4.2695,4.2782,4.2756,4.2791,4.2789,4.2842,4.2948,4.2807,4.2808,4.2833,4.3079,4.3101,4.3122,4.2936,4.294,4.2942,4.3076,0,4.2339,4.2466,4.2467,4.2585,4.2646,4.2623,4.2687,4.2725,4.274,4.2794,4.281,4.2872,4.2833,4.2854,4.2905,4.2925,4.2998,4.2915,4.2996,4.2999,4.2986,4.3145,4.3168,4.3293,4.3093,4.3096,4.3098,0,4.2503,4.2552,4.2676,4.2717,4.2742,4.28,4.2856,4.2908,4.295,4.2957,4.2997,4.2988,4.3064,4.3008,4.3114,4.3057,4.309,4.3105,4.311,4.3118,4.3055,4.3159,4.3332,4.3351,4.3125,4.3123,4.3121,0,4.2607,4.2703,4.279,4.2814,4.2864,4.2905,4.2928,4.2967,4.3004,4.3054,4.3078,4.3136,4.3168,4.3214,4.3221,4.318,4.3328,4.3272,4.3337,4.3337,4.337,4.3368,4.3553,4.339,4.339,4.339,4.3389,0,4.2748,4.2826,4.2838,4.2892,4.2978,4.2978,4.3064,4.3083,4.3119,4.3177,4.316,4.3215,4.3221,4.3278,4.3285,4.3372,4.3386,4.3395,4.3396,4.3397,4.3396,4.342,4.3412,4.3395,4.3393,4.3393,4.3392,0,4.2879,4.289,4.2984,4.3023,4.3035,4.3097,4.3131,4.3183,4.3196,4.3269,4.3287,4.3308,4.3374,4.3386,4.3464,4.3468,4.3573,4.3565,4.3559,4.3558,4.3623,4.3617,4.3829,4.3857,4.3676,4.3677,4.3679,0,4.2969,4.3028,4.3074,4.3111,4.3136,4.3196,4.3233,4.3236,4.3276,4.3329,4.3376,4.344,4.3492,4.3599,4.3622,4.3683,4.3676,4.3746,4.3685,4.3685,4.3679,4.3675,4.3682,4.3758,4.376,4.3762,4.3763,0,4.3129,4.3131,4.3185,4.3242,4.3287,4.3332,4.3375,4.3406,4.3415,4.3461,4.3528,4.3569,4.3648,4.3713,4.3773,4.3798,4.3783,4.3782,4.3801,4.3803,4.3797,4.3802,4.3592,4.3778,4.3776,4.3775,4.3774,4.3774,4.3243,4.3294,4.3335,4.3396,4.3428,4.3468,4.3519,4.3538,4.3594,4.3659,4.3657,4.3732,4.3774,4.3852,4.3881,4.394,4.3918,4.3944,4.3951,4.3958,4.3964,4.3787,4.3951,4.395,4.395,4.395,4.3949,0,4.3402,4.3427,4.3483,4.3543,4.3591,4.3572,4.3618,4.366,4.3725,4.3765,4.3817,4.3895,4.3958,4.3985,4.4048,4.409,4.4084,4.4106,4.4103,4.411,4.398,4.3959,4.4109,4.4109,4.4109,4.4109,4.4109,4.4109,4.3491,4.3577,4.3585,4.3688,4.3712,4.3784,4.3812,4.385,4.3882,4.3969,4.4021,4.4038,4.4074,4.4139,4.4196,4.4203,4.4227,4.4252,4.4256,4.4135,4.4119,4.4103,4.4083,4.4257,4.4257,4.438,4.4381,4.4382]},{"header":{"parameterUnit":"m.s-1","parameterCategory":1,"la1":30.2991,"la2":30.254,"lo1":-89.0895,"lo2":-89.0444,"dy":0.0017,"dx":0.0017,"nx":28,"ny":28,"refTime":"2025-12-30T09:00:00:Z","depth":0,"parameterNumber":3,"parameterNumberName":"V-component_of_WINDS"},"data":[0,0,0,0,0,0,0,0,0,0,0,0,0,0,0,0,0,0,0,0,0,0,0,0,0,0,0,0,0,0,0,0,0,0,0,0,0,0,0,0,0,0,0,0,0,0,0,0,0,0,0,0,0,0,0,0,0,0,0.5248,0.5249,0,0.5274,0.5274,0.5274,0.5276,0.5275,0.5275,0.5275,0.5301,0.5302,0.5302,0,0,0,0,0,0,0,0,0,0,0,0,0,0.52,0.5201,0.5248,0.5249,0.5249,0.5274,0.5274,0.5274,0.5276,0.5275,0.5275,0.5275,0.53,0.5301,0.5303,0,0,0,0,0,0,0,0,0,0,0,0,0,0.5223,0.5201,0.5248,0.5253,0.5253,0.5274,0.5274,0.5274,0.5276,0.5275,0.5275,0.5274,0.53,0.5301,0.5303,0.532,0,0,0.5307,0.5308,0,0,0,0,0,0,0,0,0.5221,0.5224,0.5252,0.5252,0.5253,0.5271,0.5266,0.529,0.5276,0.5267,0.5275,0.5274,0.5291,0.5293,0.5299,0.5322,0.5323,0.5307,0.5308,0.5309,0.5309,0,0,0,0,0,0,0,0.522,0.5223,0.5258,0.5252,0.5253,0.5253,0.5256,0.5271,0.5281,0.5268,0.5268,0.5271,0.5291,0.5298,0.53,0.5323,0.5307,0.5308,0.5309,0.531,0.5359,0.536,0,0,0,0,0,0,0.5217,0.5222,0.5258,0.5259,0.5236,0.5254,0.5257,0.5266,0.5281,0.5283,0.5271,0.5271,0.5295,0.5298,0.53,0.5321,0.5309,0.531,0.5311,0.5359,0.536,0.536,0,0,0,0,0,0,0.5216,0.5221,0.5257,0.5241,0.5245,0.5255,0.5265,0.5266,0.5273,0.5284,0.5286,0.5276,0.5295,0.5298,0.5315,0.5322,0.5311,0.5312,0.5358,0.5359,0.536,0.5363,0,0,0,0,0,0,0.5215,0.522,0.5228,0.5241,0.5246,0.5271,0.5265,0.5267,0.5275,0.5275,0.5288,0.529,0.5295,0.5313,0.5316,0.5324,0.5313,0.5358,0.5359,0.536,0.5362,0.5364,0.5365,0,0,0,0,0,0.5213,0.5228,0.5228,0.5232,0.5255,0.5272,0.5275,0.528,0.5276,0.5283,0.529,0.529,0.5321,0.5315,0.5319,0.5326,0.5357,0.5359,0.536,0.5362,0.5363,0.5365,0,0,0,0,0,0,0.5216,0.523,0.523,0.5249,0.5259,0.5272,0.5281,0.5282,0.5293,0.5292,0.5298,0.5301,0.5317,0.5323,0.5317,0.5343,0.5338,0.534,0.5339,0.5341,0.5342,0.534,0.5314,0,0,0,0,0,0.5219,0.5231,0.5242,0.5258,0.5263,0.5271,0.5278,0.5281,0.5292,0.5296,0.5304,0.5314,0.5326,0.5333,0.5345,0.5363,0.5365,0.537,0.5372,0.5373,0.5374,0.5383,0.5385,0.5363,0.5363,0.5363,0,0,0.5225,0.5234,0.5241,0.5259,0.5267,0.5279,0.5275,0.5288,0.5297,0.5298,0.5314,0.532,0.5331,0.5348,0.5356,0.5354,0.538,0.5374,0.5375,0.5376,0.5384,0.5386,0.5388,0.5364,0.5364,0.5364,0,0,0.5242,0.525,0.5264,0.5271,0.5283,0.5288,0.5291,0.5303,0.5307,0.5323,0.5324,0.5334,0.5354,0.5362,0.5368,0.5386,0.5386,0.5389,0.5396,0.5404,0.5406,0.5407,0.5413,0.5414,0.5391,0.5391,0.5391,0,0.5248,0.5266,0.5271,0.5283,0.529,0.5291,0.5304,0.5312,0.5327,0.5331,0.5329,0.5353,0.5361,0.5379,0.5383,0.5388,0.5391,0.5388,0.5405,0.5407,0.5408,0.5413,0.5415,0.5391,0.5391,0.5391,0.5391,0,0.5272,0.5284,0.5294,0.5307,0.5316,0.5329,0.5334,0.5342,0.5344,0.5348,0.5364,0.5373,0.5385,0.539,0.5392,0.5408,0.5406,0.5404,0.5399,0.541,0.5415,0.5417,0.5391,0.5391,0.5391,0.5391,0,0,0.5293,0.5307,0.5311,0.5316,0.5328,0.5338,0.535,0.5362,0.5367,0.5377,0.5387,0.5403,0.5401,0.5409,0.5411,0.5418,0.543,0.5416,0.5416,0.5417,0.5446,0.5447,0.545,0.543,0.543,0.5431,0.5445,0,0.5311,0.5332,0.5336,0.5355,0.5365,0.5365,0.5376,0.5384,0.5388,0.5398,0.5402,0.5414,0.541,0.5415,0.5422,0.5427,0.5436,0.5426,0.5439,0.5439,0.5436,0.5452,0.5454,0.5467,0.5447,0.5448,0.5448,0,0.5335,0.5344,0.5364,0.5372,0.5377,0.5386,0.5397,0.5406,0.5414,0.5417,0.5424,0.5425,0.5437,0.5431,0.5447,0.544,0.5445,0.5449,0.5449,0.545,0.5444,0.5454,0.5472,0.5473,0.5451,0.5451,0.5451,0,0.5346,0.5364,0.5378,0.5382,0.5393,0.54,0.5405,0.5413,0.5419,0.5428,0.5432,0.5442,0.5447,0.5455,0.5458,0.5454,0.5473,0.5468,0.5475,0.5475,0.5479,0.5479,0.5498,0.5483,0.5483,0.5483,0.5483,0,0.5366,0.5378,0.5383,0.5391,0.5404,0.5407,0.542,0.5424,0.5431,0.544,0.5441,0.5449,0.5453,0.5462,0.5465,0.5476,0.5479,0.5481,0.5482,0.5481,0.548,0.5484,0.5483,0.5484,0.5484,0.5483,0.5483,0,0.5382,0.5386,0.54,0.5409,0.5411,0.542,0.5427,0.5435,0.5438,0.5449,0.5452,0.5458,0.5468,0.5472,0.5484,0.5486,0.5499,0.55,0.5496,0.5497,0.5503,0.5502,0.5525,0.5528,0.5511,0.5511,0.5512,0,0.5394,0.5402,0.5411,0.5417,0.5422,0.5431,0.5437,0.544,0.5446,0.5456,0.5462,0.5472,0.548,0.5495,0.55,0.5509,0.5509,0.5516,0.5511,0.5509,0.5509,0.5508,0.5508,0.5518,0.5518,0.5518,0.5518,0,0.5414,0.5415,0.5424,0.5433,0.5439,0.5447,0.5454,0.5458,0.5462,0.5469,0.5479,0.5485,0.5497,0.5506,0.5515,0.5519,0.5519,0.552,0.5522,0.5521,0.5518,0.5519,0.5499,0.5519,0.5519,0.5519,0.5519,0.5519,0.5428,0.5435,0.5442,0.5451,0.5456,0.5462,0.547,0.5473,0.5482,0.5491,0.5492,0.5502,0.5509,0.5521,0.5526,0.5533,0.5531,0.5534,0.5535,0.5536,0.5536,0.5517,0.5535,0.5535,0.5535,0.5535,0.5535,0,0.5448,0.5452,0.546,0.5469,0.5476,0.5474,0.5481,0.5487,0.5496,0.5502,0.5509,0.552,0.5528,0.5533,0.5542,0.5547,0.5547,0.5549,0.5548,0.5549,0.5537,0.5535,0.5549,0.5549,0.5549,0.5549,0.5549,0.5549,0.5459,0.547,0.5472,0.5486,0.549,0.5499,0.5503,0.5508,0.5513,0.5525,0.5532,0.5535,0.554,0.5548,0.5556,0.5557,0.556,0.5562,0.5563,0.5552,0.555,0.5549,0.5546,0.5563,0.5563,0.5574,0.5574,0.5574]}]]